Find OneWeb SL0207

NORAD ID: 48242 Int'l Des: 2021-031 Owner: ONEWEBN Country: UK Constellation: oneweb operational
LEOCIRCULARPOLARONEWEB_TYPE

Live Position

Loading 3D Globe...

About OneWeb SL0207

Description loading...

Upcoming Passes

Passes for default location (London). Set your location on the main map for personalized predictions.

Altitude History

Loading altitude history...

Two-Line Element Set

1 48242U 21031AJ 26105.07655051 .00000287 00000-0 73963-3 0 9998
2 48242 87.8943 302.2916 0001421 91.4423 268.6869 13.14502223240009
Epoch: Apr 15, 2026 • Age: 7 hours

Current Status

Altitude 1220.3 km
Velocity 7.24 km/s
Sub-Earth Point -36.51°S, 37.25°W
Launch Date Apr 25, 2021
Age 4.9 years
Type internet

Technical Details

Classification Payload
Mass 148.00 kg
Dry Mass 140.00 kg
Total Mass 148.00 kg
Length 1.30 m
Diameter 1.00 m
Span 5.00 m
Shape Trapezoid+2 pan
Manufacturer ONEWUS
Bus Type ARROW
Phase Status In Orbit
Owner/State ONEWEBN/UK

Most Searched